Flight Track Log - Related Links

Times and Time Zones

All times are in EST time to prevent confusion due to time zone crossing. See the UAL4180 flight status page for this flight to view local times or setup timezone preferences in your user account.

Time Position Orientation Groundspeed Altitude Reporting Facility
EST Latitude Longitude Course Direction KTS MPH feet Rate Location/Type
Sun 02:00:39 PM 37.4386 -77.3572 250° West 163 188 2,700  Level Washington Center
Sun 02:01:40 PM 37.4314 -77.4172 261° West 162 186 4,800 2,067 Climbing Washington Center
Sun 02:02:00 PM 37.6533 -77.6185 254° West  Level Estimated
Sun 02:02:38 PM 37.4553 -77.4911 292° West 170 196 6,800  Level Washington Center
Sun 02:03:00 PM 37.7024 -77.7183 270° West  Level Estimated
Sun 02:03:39 PM 37.4458 -77.5667 261° West 201 231 9,100  Level Washington Center
Sun 02:04:00 PM 37.7515 -77.8183 250° West  Level Estimated
Sun 02:04:40 PM 37.4297 -77.6500 256° West 227 261 10,800  Level Washington Center
Sun 02:05:40 PM 37.4072 -77.7514 254° West 264 304 11,900 1,017 Climbing Washington Center
Sun 02:06:38 PM 37.3844 -77.8581 255° West 281 323 12,800 915 Climbing Washington Center
Sun 02:07:38 PM 37.3614 -77.9644 255° West 308 354 13,700 1,041 Climbing Washington Center
Sun 02:08:39 PM 37.3406 -78.0736 257° West 321 369 14,900 1,140 Climbing Washington Center
Sun 02:09:39 PM 37.3175 -78.1719 254° West 326 375 16,000 1,240 Climbing Washington Center
Sun 02:10:40 PM 37.2961 -78.2939 258° West 326 375 17,400 1,160 Climbing Washington Center
Sun 02:11:38 PM 37.3356 -78.3919 297° West 298 343 18,300 900 Climbing Washington Center
Sun 02:12:40 PM 37.4022 -78.4756 315° West 313 360 19,200 885 Climbing Washington Center
Sun 02:13:40 PM 37.4711 -78.5619 315° West 329 379 20,100 900 Climbing Washington Center
Sun 02:14:40 PM 37.5339 -78.6375 316° Northwest 344 396 21,000 843 Climbing Washington Center
Sun 02:15:41 PM 37.6047 -78.7269 315° West 349 402 21,800 864 Climbing Washington Center
Sun 02:16:38 PM 37.6731 -78.8164 314° West 354 407 22,700 966 Climbing Washington Center
Sun 02:17:39 PM 37.7519 -78.9144 316° Northwest 354 407 23,700 645 Climbing Washington Center
Sun 02:18:39 PM 37.8244 -79.0069 315° West 354 407 24,000 149 Climbing Washington Center
Sun 02:19:40 PM 37.8967 -79.1022 314° West 359 413 24,000  Level Washington Center
Sun 02:20:40 PM 37.9667 -79.2031 311° West 369 425 24,000  Level Washington Center
Sun 02:21:38 PM 38.0306 -79.2983 310° West 386 444 24,000  Level Washington Center
Sun 02:23:19 PM 38.1489 -79.4806 310° West 389 448 24,000  Level Indianapolis Center
Sun 02:24:21 PM 38.2164 -79.5814 310° West 388 447 24,000  Level Indianapolis Center
Sun 02:25:24 PM 38.2817 -79.6828 309° West 383 441 24,000  Level Indianapolis Center
Sun 02:26:26 PM 38.3628 -79.8058 310° West 389 448 24,000  Level Indianapolis Center
Sun 02:27:28 PM 38.4294 -79.9081 310° West 386 444 24,000  Level Indianapolis Center
Sun 02:28:30 PM 38.4969 -80.0097 310° West 387 445 24,000  Level Indianapolis Center
Sun 02:29:32 PM 38.5761 -80.1314 310° West 383 441 24,000  Level Indianapolis Center
Sun 02:30:34 PM 38.6392 -80.2289 310° West 383 441 24,000  Level Indianapolis Center
Sun 02:31:36 PM 38.7053 -80.3322 309° West 378 435 24,000  Level Indianapolis Center
Sun 02:32:38 PM 38.7703 -80.4367 309° West 376 433 24,000  Level Indianapolis Center
Sun 02:33:40 PM 38.8383 -80.5697 303° West 371 427 24,000  Level Indianapolis Center
Sun 02:34:42 PM 38.8939 -80.6811 303° West 372 428 24,000  Level Indianapolis Center
Sun 02:35:44 PM 38.9492 -80.7919 303° West 369 425 24,000  Level Indianapolis Center
Sun 02:36:46 PM 39.0042 -80.9031 303° West 370 426 24,000  Level Indianapolis Center
Sun 02:37:48 PM 39.0581 -81.0139 302° West 368 423 24,000  Level Indianapolis Center
Sun 02:38:50 PM 39.1247 -81.1486 303° West 373 429 24,000  Level Indianapolis Center
Sun 02:39:52 PM 39.1789 -81.2597 302° West 369 425 24,000  Level Indianapolis Center
Sun 02:40:54 PM 39.2331 -81.3711 302° West 368 423 24,000  Level Indianapolis Center
Sun 02:41:56 PM 39.2875 -81.4831 302° West 369 425 24,000  Level Indianapolis Center
Sun 02:42:58 PM 39.3417 -81.5947 302° West 369 425 24,000  Level Indianapolis Center
Sun 02:44:01 PM 39.3958 -81.7072 302° West 369 425 24,000  Level Indianapolis Center
Sun 02:45:03 PM 39.4606 -81.8417 302° West 367 422 24,000  Level Indianapolis Center
Sun 02:46:05 PM 39.5142 -81.9547 302° West 368 423 24,000  Level Indianapolis Center
Sun 02:47:07 PM 39.5681 -82.0683 302° West 370 426 24,000  Level Indianapolis Center
Sun 02:48:09 PM 39.6200 -82.1775 302° West 367 422 24,000  Level Indianapolis Center
Sun 02:49:11 PM 39.6736 -82.2906 302° West 369 425 24,000  Level Indianapolis Center
Sun 02:50:13 PM 39.7372 -82.4253 302° West 367 422 24,000  Level Indianapolis Center
Sun 02:51:15 PM 39.7903 -82.5392 301° West 368 423 24,000  Level Indianapolis Center
Sun 02:52:17 PM 39.8436 -82.6514 302° West 368 423 24,000  Level Indianapolis Center
Sun 02:53:19 PM 39.8956 -82.7650 301° West 367 422 24,000  Level Indianapolis Center
Sun 02:54:21 PM 39.9483 -82.8775 301° West 366 421 24,000  Level Indianapolis Center
Sun 02:55:23 PM 40.0003 -82.9892 301° West 364 419 24,000  Level Indianapolis Center
Sun 02:56:25 PM 40.0622 -83.1242 301° West 364 419 24,000  Level Indianapolis Center
Sun 02:57:27 PM 40.1136 -83.2367 301° West 364 419 24,000  Level Indianapolis Center
Sun 02:58:29 PM 40.1650 -83.3492 301° West 365 420 24,000 48 Level Indianapolis Center
Sun 02:59:31 PM 40.2167 -83.4622 301° West 365 420 24,100 336 Climbing Indianapolis Center
Sun 03:00:34 PM 40.2764 -83.5939 301° West 355 409 24,700 432 Climbing Indianapolis Center
Sun 03:01:36 PM 40.3250 -83.7025 300° West 349 402 25,000 145 Climbing Indianapolis Center
Sun 03:02:38 PM 40.3750 -83.8131 301° West 353 406 25,000  Level Indianapolis Center
Sun 03:03:40 PM 40.4253 -83.9250 301° West 357 411 25,000  Level Indianapolis Center
Sun 03:04:42 PM 40.4764 -84.0375 301° West 360 414 25,000  Level Indianapolis Center
Sun 03:05:44 PM 40.5269 -84.1514 300° West 361 415 25,000  Level Indianapolis Center
Sun 03:06:46 PM 40.5881 -84.2886 300° West 363 418 25,000  Level Indianapolis Center
Sun 03:07:48 PM 40.6361 -84.3994 300° West 352 405 25,000  Level Indianapolis Center
Sun 03:08:50 PM 40.6850 -84.5092 300° West 349 402 25,000  Level Indianapolis Center
Sun 03:09:52 PM 40.7333 -84.6183 300° West 346 398 25,000  Level Indianapolis Center
Sun 03:10:36 PM 40.7672 -84.6942 301° West 346 398 25,000  Level Chicago Center
Sun 03:11:38 PM 40.8156 -84.8033 300° West 346 398 25,000  Level Chicago Center
Sun 03:12:40 PM 40.9183 -84.8819 330° Northwest 360 414 25,000  Level Chicago Center
Sun 03:13:42 PM 41.0069 -84.9444 332° Northwest 361 415 25,000  Level Chicago Center
Sun 03:14:44 PM 41.0964 -85.0072 332° Northwest 363 418 25,000  Level Chicago Center
Sun 03:15:46 PM 41.1856 -85.0689 333° Northwest 362 417 25,000  Level Chicago Center
Sun 03:16:48 PM 41.2739 -85.1322 332° Northwest 361 415 25,000  Level Chicago Center
Sun 03:17:50 PM 41.3217 -85.2361 302° West 350 403 25,000  Level Chicago Center
Sun 03:18:52 PM 41.3161 -85.3892 267° West 343 395 25,000  Level Chicago Center
Sun 03:19:54 PM 41.3097 -85.5183 266° West 347 399 25,000  Level Chicago Center
Sun 03:20:56 PM 41.3033 -85.6475 266° West 348 400 25,000  Level Chicago Center
Sun 03:21:58 PM 41.2958 -85.7778 266° West 352 405 25,000  Level Chicago Center
Sun 03:23:00 PM 41.3008 -85.9089 273° West 360 414 25,000  Level Chicago Center
Sun 03:24:02 PM 41.3350 -86.0308 290° West 354 407 25,000 -48 Level Chicago Center
Sun 03:25:04 PM 41.3683 -86.1567 289° West 359 413 24,900 -1,065 Descending Chicago Center
Sun 03:26:06 PM 41.4100 -86.3081 290° West 362 417 22,800 -2,226 Descending Chicago Center
Sun 03:27:08 PM 41.4422 -86.4322 289° West 357 411 20,300 -2,468 Descending Chicago Center
Sun 03:28:10 PM 41.4733 -86.5486 290° West 339 390 17,700 -2,081 Descending Chicago Center
Sun 03:29:12 PM 41.5036 -86.6625 290° West 328 377 16,000 -1,839 Descending Chicago Center
Sun 03:30:14 PM 41.5725 -86.7436 319° Northwest 332 382 13,900 -1,790 Descending Chicago Center
Sun 03:31:16 PM 41.6503 -86.7897 336° Northwest 312 359 12,300 -1,258 Descending Chicago Center
Sun 03:32:18 PM 41.7356 -86.8044 353° North 315 362 11,300 -581 Descending Chicago Center
Sun 03:33:20 PM 41.8389 -86.8242 352° North 314 361 11,100 -97 Descending Chicago Center
Sun 03:34:22 PM 41.9103 -86.8814 329° Northwest 310 357 11,100 -387 Level Chicago Center
Sun 03:35:24 PM 41.9508 -86.9817 299° West 314 361 10,300 -532 Descending Chicago Center
Sun 03:36:26 PM 41.9814 -87.0858 292° West 306 352 10,000 -242 Descending Chicago Center
Sun 03:37:28 PM 41.9806 -87.1864 269° West 273 314 9,800 -677 Descending Chicago Center
Sun 03:38:30 PM 41.9842 -87.2989 273° West 255 293 8,600 -960 Descending Chicago Center
Sun 03:39:33 PM 41.9822 -87.3933 268° West 256 295 7,800 -816 Descending Chicago Center
Sun 03:40:35 PM 41.9833 -87.4861 271° West 253 291 6,900 -1,161 Descending Chicago Center
Sun 03:41:37 PM 41.9825 -87.5769 269° West 249 287 5,400 -1,403 Descending Chicago Center
Sun 03:42:39 PM 41.9842 -87.6672 271° West 247 284 4,000 -1,355 Descending Chicago Center
Sun 03:43:41 PM 41.9836 -87.7678 270° West 238 274 2,600 -1,016 Descending Chicago Center
Sun 03:44:43 PM 41.9847 -87.8297 271° West 200 230 1,900 -581 Descending Chicago Center
Sun 03:45:45 PM 41.9853 -87.8761 271° West 174 200 1,400 -484 Descending Chicago Center

Login

Don't have an account? Register now (free) for customized features, flight alerts, and more!